Home > Weather > Bydgoszcz > Past weeks

Flag for Poland Past Weather in Bydgoszcz, Poland — Yesterday and Last 2 Weeks

Now
69 °F

Fog.


Feels Like: 69 °F
Forecast: 63 / 84 °F
Wind: 1 mph from South

Location: Torun

Current Time: Jul 26, 2016 at 8:40:53 AM

Latest Report: Jul 26, 2016 at 7:00 AM


Visibility: 6 mi

Pressure: 30.04 "Hg

Humidity: 90%

Dew Point: 65 °F

Location of BydgoszczLocation

Past Weather in Bydgoszcz — Graph

°F

Bydgoszcz Temperature Yesterday

Maximum temperature yesterday: 83 °F (at 1:00 PM)
Minimum temperature yesterday: 64 °F (at 5:00 AM)
Average temperature yesterday: 73 °F

High & Low Weather Summary for the Past Weeks

 TemperatureHumidityPressure
High90 °F (Jul 11, 2:00 PM)97% (Jul 13, 11:00 PM)30.21 "Hg (Jul 13, 11:00 PM)
Low48 °F (Jul 22, 4:00 AM)29% (Jul 21, 5:00 PM)29.44 "Hg (Jul 14, 7:00 PM)
Average66 °F75%29.99 "Hg
* Reported Jul 11 7:00 AM — Jul 26 7:00 AM, Bydgoszcz, Weather by CustomWeather, © 2016

Note: Actual official high and low records may vary slightly from our data, if they occured in-between our weather recording intervals... More about our weather records

Advertising

Bydgoszcz Weather History for the Previous 24 Hours

Scroll right to see more
 ConditionsComfort  
Time TempWeatherWind HumidityBarometerVisibility
7:00 AM
Tue, Jul 26
69 °FFog.1 mph90%30.04 "Hg6 mi
6:00 AM62 °FFog.No wind97%30.04 "Hg3 mi
5:00 AM61 °FFog.No wind95%30.04 "Hg2 mi
4:00 AM62 °FFog.No wind95%30.04 "Hg2 mi
3:00 AM62 °FFog.2 mph95%30.04 "Hg2 mi
2:00 AM63 °FFog.No wind93%30.03 "Hg2 mi
1:00 AM64 °FFog.No wind92%30.03 "Hg2 mi
12:00 AM66 °FPassing clouds.1 mph90%30.04 "Hg7 mi
11:00 PM
Mon, Jul 25
66 °FPassing clouds.1 mph88%30.03 "Hg7 mi
10:00 PM69 °FPassing clouds.No wind81%30.03 "Hg11 mi
9:00 PM73 °FPassing clouds.1 mph72%30.03 "Hg16 mi
8:00 PM75 °FPartly sunny.3 mph67%30.02 "Hg19 mi
7:00 PM76 °FPartly sunny.2 mph65%30.02 "Hg22 mi
6:00 PM76 °FOvercast.2 mph59%30.01 "Hg31 mi
5:00 PM76 °FOvercast.3 mph61%30.01 "Hg22 mi
4:00 PM80 °FOvercast.5 mph51%30.01 "Hg19 mi
3:00 PM83 °FOvercast.5 mph46%30.01 "Hg18 mi
2:00 PM82 °FOvercast.2 mph46%30.01 "Hg16 mi
1:00 PM83 °FOvercast.3 mph45%30.02 "Hg19 mi
12:00 PM82 °FOvercast.2 mph48%30.03 "Hg17 mi
11:00 AM80 °FPartly sunny.2 mph54%30.04 "Hg13 mi
10:00 AM78 °FPartly sunny.1 mph56%30.05 "Hg12 mi
9:00 AM76 °FPartly sunny.1 mph64%30.05 "Hg12 mi
8:00 AM72 °FPartly sunny.1 mph72%30.06 "Hg9 mi
Weather by CustomWeather, © 2016

See weather overviewHow to use our weather pages